Location: Unspecified
(0.0000°N, 0.0000°E)
Time: 18:11:34
(UTC+00:00)

N. Korean satellite - Pass Details

Date: 27 May 2019
Orbit: 457 x 507 km, 97.2° (Epoch: 18 August)

Event Time Altitude Azimuth Distance (km) Brightness Sun altitude
Rises 05:29:22 0° 18° (NNE) 2,462 10.8 -6.5°
Reaches altitude 10° 05:31:26 10° 23° (NNE) 1,590 9.9 -6.0°
Maximum altitude 05:34:45 52° 101° (E) 569 7.3 -5.2°
Drops below altitude 10° 05:38:06 10° 178° (S) 1,598 9.0 -4.4°
Sets 05:40:10 0° 183° (S) 2,477 9.9 -4.0°
